Time,TemperatureF,DewpointF,PressureIn,WindDirection,WindDirectionDegrees,WindSpeedMPH,WindSpeedGustMPH,Humidity,HourlyPrecipIn,Conditions,Clouds,dailyrainin,SoftwareType,DateUTC
2013-02-01 12:05:00,58.5,44.8,0.00,SE,134,3.2,6.4,60,0.00,,,0.00,WUHU216CR1000,2013-02-01 20:05:00,
2013-02-01 12:10:00,58.5,44.8,0.00,SE,134,3.2,6.4,60,0.00,,,0.00,WUHU216CR1000,2013-02-01 20:10:00,
2013-02-01 12:17:00,59.4,45.7,0.00,SE,130,2.7,6.4,60,0.00,,,0.00,WUHU216CR1000,2013-02-01 20:17:00,
2013-02-01 12:22:00,59.4,45.7,0.00,SE,130,2.7,6.4,60,0.00,,,0.00,WUHU216CR1000,2013-02-01 20:22:00,
2013-02-01 12:32:00,60.4,45.7,0.00,SSE,161,1.6,6.4,58,0.00,,,0.00,WUHU216CR1000,2013-02-01 20:32:00,
2013-02-01 12:37:00,60.4,45.7,0.00,SSE,161,1.6,6.4,58,0.00,,,0.00,WUHU216CR1000,2013-02-01 20:37:00,
2013-02-01 12:47:00,61.6,45.6,0.00,South,178,2.6,6.4,56,0.00,,,0.00,WUHU216CR1000,2013-02-01 20:47:00,
2013-02-01 12:52:00,61.6,45.6,0.00,South,178,2.6,6.4,56,0.00,,,0.00,WUHU216CR1000,2013-02-01 20:52:00,
2013-02-01 13:02:00,62.8,45.3,0.00,SE,138,2.9,6.4,53,0.00,,,0.00,WUHU216CR1000,2013-02-01 21:02:00,
2013-02-01 13:07:00,62.8,45.3,0.00,SE,138,2.9,6.4,53,0.00,,,0.00,WUHU216CR1000,2013-02-01 21:07:00,
2013-02-01 13:17:00,64.3,45.2,0.00,SE,134,3.7,8.2,50,0.00,,,0.00,WUHU216CR1000,2013-02-01 21:17:00,
2013-02-01 13:22:00,64.3,45.2,0.00,SE,134,3.7,8.2,50,0.00,,,0.00,WUHU216CR1000,2013-02-01 21:22:00,
2013-02-01 13:32:00,65.3,45.5,0.00,SE,141,3.5,8.2,49,0.00,,,0.00,WUHU216CR1000,2013-02-01 21:32:00,
2013-02-01 13:37:00,65.3,45.5,0.00,SE,141,3.5,8.2,49,0.00,,,0.00,WUHU216CR1000,2013-02-01 21:37:00,
2013-02-01 13:47:00,66.3,45.3,0.00,SSE,167,4.0,8.2,47,0.00,,,0.00,WUHU216CR1000,2013-02-01 21:47:00,
2013-02-01 13:52:00,66.3,45.3,0.00,SSE,167,4.0,8.2,47,0.00,,,0.00,WUHU216CR1000,2013-02-01 21:52:00,
2013-02-01 14:02:00,66.7,45.0,0.00,SSE,153,3.2,6.4,46,0.00,,,0.00,WUHU216CR1000,2013-02-01 22:02:00,
2013-02-01 14:07:00,66.7,45.0,0.00,SSE,153,3.2,6.4,46,0.00,,,0.00,WUHU216CR1000,2013-02-01 22:07:00,
2013-02-01 14:17:00,67.7,45.3,0.00,SE,133,4.3,8.2,44,0.00,,,0.00,WUHU216CR1000,2013-02-01 22:17:00,
2013-02-01 14:22:00,67.7,45.3,0.00,SE,133,4.3,8.2,44,0.00,,,0.00,WUHU216CR1000,2013-02-01 22:22:00,
2013-02-01 14:32:00,68.2,45.1,0.00,SSE,160,4.3,9.9,43,0.00,,,0.00,WUHU216CR1000,2013-02-01 22:32:00,
2013-02-01 14:37:00,68.2,45.1,0.00,SSE,160,4.3,9.9,43,0.00,,,0.00,WUHU216CR1000,2013-02-01 22:37:00,
2013-02-01 14:47:00,68.5,44.8,0.00,SSE,149,5.2,9.9,42,0.00,,,0.00,WUHU216CR1000,2013-02-01 22:47:00,
2013-02-01 14:52:00,68.5,44.8,0.00,SSE,149,5.2,9.9,42,0.00,,,0.00,WUHU216CR1000,2013-02-01 22:52:00,
2013-02-01 15:02:00,69.2,44.2,0.00,SE,146,3.1,6.4,40,0.00,,,0.00,WUHU216CR1000,2013-02-01 23:02:00,
2013-02-01 15:07:00,69.2,44.2,0.00,SE,146,3.1,6.4,40,0.00,,,0.00,WUHU216CR1000,2013-02-01 23:07:00,
2013-02-01 15:17:00,69.5,43.8,0.00,SE,137,3.0,6.4,39,0.00,,,0.00,WUHU216CR1000,2013-02-01 23:17:00,
2013-02-01 15:22:00,69.5,43.8,0.00,SE,137,3.0,6.4,39,0.00,,,0.00,WUHU216CR1000,2013-02-01 23:22:00,
2013-02-01 15:32:00,69.6,43.8,0.00,SE,135,4.8,8.2,39,0.00,,,0.00,WUHU216CR1000,2013-02-01 23:32:00,
2013-02-01 15:37:00,69.6,43.8,0.00,SE,135,4.8,8.2,39,0.00,,,0.00,WUHU216CR1000,2013-02-01 23:37:00,
2013-02-01 15:47:00,69.3,43.6,0.00,SSE,162,5.6,9.9,39,0.00,,,0.00,WUHU216CR1000,2013-02-01 23:47:00,
2013-02-01 15:52:00,69.3,43.6,0.00,SSE,162,5.6,9.9,39,0.00,,,0.00,WUHU216CR1000,2013-02-01 23:52:00,
2013-02-01 16:02:00,68.2,44.6,0.00,South,177,5.2,8.2,43,0.00,,,0.00,WUHU216CR1000,2013-02-02 00:02:00,
2013-02-01 16:07:00,68.2,44.6,0.00,South,177,5.2,8.2,43,0.00,,,0.00,WUHU216CR1000,2013-02-02 00:07:00,
2013-02-01 16:17:00,66.7,45.8,0.00,SSW,203,3.5,6.4,47,0.00,,,0.00,WUHU216CR1000,2013-02-02 00:17:00,
2013-02-01 16:22:00,66.7,45.8,0.00,SSW,203,3.5,6.4,47,0.00,,,0.00,WUHU216CR1000,2013-02-02 00:22:00,
2013-02-01 16:32:00,65.4,46.5,0.00,SSW,212,3.4,6.4,50,0.00,,,0.00,WUHU216CR1000,2013-02-02 00:32:00,
2013-02-01 16:37:00,65.4,46.5,0.00,SSW,212,3.4,6.4,50,0.00,,,0.00,WUHU216CR1000,2013-02-02 00:37:00,
2013-02-01 16:47:00,64.9,46.2,0.00,SW,214,1.9,4.6,51,0.00,,,0.00,WUHU216CR1000,2013-02-02 00:47:00,
2013-02-01 16:52:00,64.9,46.2,0.00,SW,214,1.9,4.6,51,0.00,,,0.00,WUHU216CR1000,2013-02-02 00:52:00,
2013-02-01 17:02:00,63.9,45.1,0.00,WSW,243,2.0,4.6,50,0.00,,,0.00,WUHU216CR1000,2013-02-02 01:02:00,
2013-02-01 17:07:00,63.9,45.1,0.00,WSW,243,2.0,4.6,50,0.00,,,0.00,WUHU216CR1000,2013-02-02 01:07:00,
2013-02-01 17:17:00,60.9,45.3,0.00,West,268,2.8,4.6,56,0.00,,,0.00,WUHU216CR1000,2013-02-02 01:17:00,
2013-02-01 17:22:00,60.9,45.3,0.00,West,268,2.8,4.6,56,0.00,,,0.00,WUHU216CR1000,2013-02-02 01:22:00,
2013-02-01 17:32:00,57.7,44.5,0.00,West,276,2.0,4.6,61,0.00,,,0.00,WUHU216CR1000,2013-02-02 01:32:00,
2013-02-01 17:37:00,57.7,44.5,0.00,West,276,2.0,4.6,61,0.00,,,0.00,WUHU216CR1000,2013-02-02 01:37:00,
2013-02-01 17:47:00,55.2,43.9,0.00,West,260,2.1,4.6,66,0.00,,,0.00,WUHU216CR1000,2013-02-02 01:47:00,
2013-02-01 17:52:00,55.2,43.9,0.00,West,260,2.1,4.6,66,0.00,,,0.00,WUHU216CR1000,2013-02-02 01:52:00,
2013-02-01 18:02:00,54.2,43.3,0.00,West,273,1.3,2.8,67,0.00,,,0.00,WUHU216CR1000,2013-02-02 02:02:00,
2013-02-01 18:07:00,54.2,43.3,0.00,West,273,1.3,2.8,67,0.00,,,0.00,WUHU216CR1000,2013-02-02 02:07:00,
2013-02-01 18:17:00,53.2,43.0,0.00,West,265,0.8,4.6,68,0.00,,,0.00,WUHU216CR1000,2013-02-02 02:17:00,
2013-02-01 18:22:00,53.2,43.0,0.00,West,265,0.8,4.6,68,0.00,,,0.00,WUHU216CR1000,2013-02-02 02:22:00,
2013-02-01 18:32:00,52.5,42.8,0.00,WNW,299,0.2,2.8,69,0.00,,,0.00,WUHU216CR1000,2013-02-02 02:32:00,
2013-02-01 18:37:00,52.5,42.8,0.00,WNW,299,0.2,2.8,69,0.00,,,0.00,WUHU216CR1000,2013-02-02 02:37:00,
2013-02-01 18:47:00,51.8,42.5,0.00,WNW,294,1.6,2.8,70,0.00,,,0.00,WUHU216CR1000,2013-02-02 02:47:00,
2013-02-01 18:52:00,51.8,42.5,0.00,WNW,294,1.6,2.8,70,0.00,,,0.00,WUHU216CR1000,2013-02-02 02:52:00,
2013-02-01 19:02:00,51.0,42.5,0.00,NW,315,2.2,4.6,72,0.00,,,0.00,WUHU216CR1000,2013-02-02 03:02:00,
2013-02-01 19:07:00,51.0,42.5,0.00,NW,315,2.2,4.6,72,0.00,,,0.00,WUHU216CR1000,2013-02-02 03:07:00,
2013-02-01 19:17:00,51.1,42.3,0.00,NW,318,2.5,4.6,72,0.00,,,0.00,WUHU216CR1000,2013-02-02 03:17:00,
2013-02-01 19:22:00,51.1,42.3,0.00,NW,318,2.5,4.6,72,0.00,,,0.00,WUHU216CR1000,2013-02-02 03:22:00,
2013-02-01 19:32:00,50.2,42.2,0.00,NNW,327,2.9,4.6,74,0.00,,,0.00,WUHU216CR1000,2013-02-02 03:32:00,
2013-02-01 19:37:00,50.2,42.2,0.00,NNW,327,2.9,4.6,74,0.00,,,0.00,WUHU216CR1000,2013-02-02 03:37:00,
2013-02-01 19:47:00,49.4,42.0,0.00,NW,323,2.6,4.6,76,0.00,,,0.00,WUHU216CR1000,2013-02-02 03:47:00,
2013-02-01 19:52:00,49.4,42.0,0.00,NW,323,2.6,4.6,76,0.00,,,0.00,WUHU216CR1000,2013-02-02 03:52:00,
2013-02-01 20:02:00,48.7,41.8,0.00,NW,305,1.9,4.6,77,0.00,,,0.00,WUHU216CR1000,2013-02-02 04:02:00,
2013-02-01 20:07:00,48.7,41.8,0.00,NW,305,1.9,4.6,77,0.00,,,0.00,WUHU216CR1000,2013-02-02 04:07:00,
2013-02-01 20:17:00,49.8,41.8,0.00,NW,318,2.6,4.6,74,0.00,,,0.00,WUHU216CR1000,2013-02-02 04:17:00,
2013-02-01 20:22:00,49.8,41.8,0.00,NW,318,2.6,4.6,74,0.00,,,0.00,WUHU216CR1000,2013-02-02 04:22:00,
2013-02-01 20:32:00,49.7,41.8,0.00,NW,326,2.5,4.6,74,0.00,,,0.00,WUHU216CR1000,2013-02-02 04:32:00,
2013-02-01 20:37:00,49.7,41.8,0.00,NW,326,2.5,4.6,74,0.00,,,0.00,WUHU216CR1000,2013-02-02 04:37:00,
2013-02-01 20:47:00,48.7,41.5,0.00,NNW,332,2.6,4.6,76,0.00,,,0.00,WUHU216CR1000,2013-02-02 04:47:00,
2013-02-01 20:52:00,48.7,41.5,0.00,NNW,332,2.6,4.6,76,0.00,,,0.00,WUHU216CR1000,2013-02-02 04:52:00,
2013-02-01 21:02:00,47.5,41.3,0.00,NNW,332,2.3,4.6,79,0.00,,,0.00,WUHU216CR1000,2013-02-02 05:02:00,
2013-02-01 21:07:00,47.5,41.3,0.00,NNW,332,2.3,4.6,79,0.00,,,0.00,WUHU216CR1000,2013-02-02 05:07:00,
2013-02-01 21:17:00,47.1,41.1,0.00,NNW,335,1.4,4.6,80,0.00,,,0.00,WUHU216CR1000,2013-02-02 05:17:00,
2013-02-01 21:22:00,47.1,41.1,0.00,NNW,335,1.4,4.6,80,0.00,,,0.00,WUHU216CR1000,2013-02-02 05:22:00,
2013-02-01 21:32:00,46.1,40.8,0.00,NNW,338,1.3,4.6,82,0.00,,,0.00,WUHU216CR1000,2013-02-02 05:32:00,
2013-02-01 21:37:00,46.1,40.8,0.00,NNW,338,1.3,4.6,82,0.00,,,0.00,WUHU216CR1000,2013-02-02 05:37:00,
2013-02-01 21:47:00,46.0,40.8,0.00,WSW,250,0.2,2.8,82,0.00,,,0.00,WUHU216CR1000,2013-02-02 05:47:00,
2013-02-01 21:52:00,46.0,40.8,0.00,WSW,250,0.2,2.8,82,0.00,,,0.00,WUHU216CR1000,2013-02-02 05:52:00,
2013-02-01 22:02:00,46.0,41.0,0.00,WNW,302,0.7,2.8,83,0.00,,,0.00,WUHU216CR1000,2013-02-02 06:02:00,
2013-02-01 22:07:00,46.0,41.0,0.00,WNW,302,0.7,2.8,83,0.00,,,0.00,WUHU216CR1000,2013-02-02 06:07:00,
2013-02-01 22:17:00,44.8,40.1,0.00,NNW,334,1.4,4.6,83,0.00,,,0.00,WUHU216CR1000,2013-02-02 06:17:00,
2013-02-01 22:22:00,44.8,40.1,0.00,NNW,334,1.4,4.6,83,0.00,,,0.00,WUHU216CR1000,2013-02-02 06:22:00,
2013-02-01 22:32:00,44.5,40.2,0.00,NW,325,2.3,4.6,85,0.00,,,0.00,WUHU216CR1000,2013-02-02 06:32:00,
2013-02-01 22:37:00,44.5,40.2,0.00,NW,325,2.3,4.6,85,0.00,,,0.00,WUHU216CR1000,2013-02-02 06:37:00,
2013-02-01 22:47:00,44.8,40.5,0.00,NW,326,2.2,4.6,85,0.00,,,0.00,WUHU216CR1000,2013-02-02 06:47:00,
2013-02-01 22:52:00,44.8,40.5,0.00,NW,326,2.2,4.6,85,0.00,,,0.00,WUHU216CR1000,2013-02-02 06:52:00,
2013-02-01 23:02:00,44.1,40.0,0.00,NNW,331,1.5,4.6,85,0.00,,,0.00,WUHU216CR1000,2013-02-02 07:02:00,
2013-02-01 23:07:00,44.1,40.0,0.00,NNW,331,1.5,4.6,85,0.00,,,0.00,WUHU216CR1000,2013-02-02 07:07:00,
2013-02-01 23:17:00,43.1,39.4,0.00,NNW,340,2.5,4.6,87,0.00,,,0.00,WUHU216CR1000,2013-02-02 07:17:00,
2013-02-01 23:22:00,43.1,39.4,0.00,NNW,340,2.5,4.6,87,0.00,,,0.00,WUHU216CR1000,2013-02-02 07:22:00,
2013-02-01 23:32:00,42.3,38.8,0.00,NNW,335,2.5,4.6,88,0.00,,,0.00,WUHU216CR1000,2013-02-02 07:32:00,
2013-02-01 23:37:00,42.3,38.8,0.00,NNW,335,2.5,4.6,88,0.00,,,0.00,WUHU216CR1000,2013-02-02 07:37:00,
2013-02-01 23:47:00,42.8,39.6,0.00,NNW,331,2.8,4.6,88,0.00,,,0.00,WUHU216CR1000,2013-02-02 07:47:00,
2013-02-01 23:52:00,42.8,39.6,0.00,NNW,331,2.8,4.6,88,0.00,,,0.00,WUHU216CR1000,2013-02-02 07:52:00,